Regional Weather Roundup
Issued by NWS

Home | Current Version | Previous Version | Text Only | Print | Product List | Glossary Off
Versions: 1 2 3 4 5 6 7 8 9 10 11 12 13 14 15 16 17 18 19 20 21 22 23 24 25 26 27 28 29 30 31 32 33 34 35 36 37 38 39 40 41 42 43 44 45 46 47 48 49 50

000
ASUS43 KLOT 300508
RWRIL

ILLINOIS REGIONAL WEATHER ROUNDUP
NATIONAL WEATHER SERVICE CHICAGO/ROMEOVILLE IL
1200 AM CDT TUE JUN 30 2015

NOTE: "FAIR" INDICATES FEW OR NO CLOUDS BELOW 12,000 FEET WITH NO
SIGNIFICANT WEATHER AND/OR OBSTRUCTIONS TO VISIBILITY.

* THESE STATIONS ARE NOT UNDER NWS QUALITY CONTROL. THEY ALSO MAY NOT
  REPORT WEATHER SUCH AS PRECIPITATION OR FOG.

ILZ001-002-007-009-015-016-024-300600-
NORTHWEST ILLINOIS

CITY           SKY/WX    TMP DP  RH WIND       PRES   REMARKS
MOLINE         CLOUDY    67  64  90 CALM      29.83F
STERLING*      CLOUDY    66  63  88 W5        29.80F
SAVANNA*       CLOUDY    65  62  90 CALM      29.80F
$$

ILZ003-004-008-010-011-017-018-300600-
NORTH CENTRAL ILLINOIS

CITY           SKY/WX    TMP DP  RH WIND       PRES   REMARKS
ROCKFORD       LGT RAIN  66  62  87 CALM      29.80F
FREEPORT*      CLOUDY    60  60  98 CALM      29.81S
ROCHELLE*      RAIN      63  61  92 SW3       29.79F
DE KALB*       HVY RAIN  64  61  91 SW5       29.79F
PERU*          RAIN      68  64  88 NW9G18    29.81F
$$

ILZ005-006-012>014-019>023-300600-
NORTHEAST ILLINOIS

CITY           SKY/WX    TMP DP  RH WIND       PRES   REMARKS
CHICAGO-OHARE  MOCLDY    64  63  96 S5        29.78F
CHICAGO-MIDWAY PTCLDY    68  65  90 S6        29.79S
AURORA         PTCLDY    65  61  87 SE3       29.79F
LANSING*       CLEAR     64  62  93 SW5       29.81S FOG
JOLIET*        CLEAR     65  64  99 CALM      29.80F FOG
WAUKEGAN       PTCLDY    59  58  96 CALM      29.77F FOG
DUPAGE AIRPORT HVY RAIN  66  63  90 S6        29.78F FOG
KANKAKEE*      CLEAR     64  64  98 S3        29.82S
WHEELING       PTCLDY    63  61  93 S5        29.79F FOG
MORRIS*        MOCLDY    66  65  96 S5        29.78F
ROMEOVILLE*    PTCLDY    63  63  99 S6        29.79F FOG
NORTHERLY ISL    N/A     65  62  90 S2          N/A
$$

LMZ740>746-300600-
SOUTHERN LAKE MICHIGAN

STATION/POSITION SKY/WX   TEMP    WIND        PRES    VSBY  WAVE
                          AIR SEA DIR/SP/G                  HT/PER
                          (F)     (DEG/KT/KT) (MB)    (MI)  (FT/S)
HARRISON CRIB              64     180/  7/  7   N/A
BURNHAM HARBOR             65     160/  2/  5   N/A
CALUMET HARBOR             65     210/  1/  2   N/A
BURNS HARBOR               67     170/  5/  9 1009.8F
MICHIGAN CITY              65     130/  7/  8   N/A
MICHIGAN CITY 6N           65 65  180/ 10/ 12   N/A           1
ST. JOSEPH                 63 64                N/A           1
$$

ILZ025>027-034>036-040-047-049-050-058-095>099-300600-
WEST-CENTRAL ILLINOIS

CITY           SKY/WX    TMP DP  RH WIND       PRES   REMARKS
QUINCY         CLEAR     69  66  90 W6        29.87R
GALESBURG*     MOCLDY    65  61  86 CALM      29.85S
MACOMB*        PTCLDY    66  65  97 W7        29.86F
JACKSONVILLE*  CLEAR     69  67  93 SW6       29.86S
PITTSFIELD*    CLEAR     68  65  90 CALM      29.88S
$$

ILZ028>032-037-038-041>044-048-051>054-059>061-300600-
CENTRAL ILLINOIS

CITY           SKY/WX    TMP DP  RH WIND       PRES   REMARKS
PONTIAC        CLOUDY    66  66 100 CALM      29.83S
BLOOMINGTON    PTCLDY    69  66  90 SW8       29.85S
DECATUR        CLEAR     67  64  90 SW6       29.85S
PEORIA         TSTM      70  63  78 N6G16     29.84R
LACON*         CLOUDY    69  62  78 W6        29.81F
LINCOLN*       PTCLDY    70  66  87 SW3       29.85S
SPRINGFIELD    PTCLDY    69  65  86 W5        29.85S
TAYLORVILLE    CLEAR     64  64 100 SW3       29.86S
$$

ILZ033-039-045-046-055>057-062-063-300600-
EAST-CENTRAL ILLINOIS

CITY           SKY/WX    TMP DP  RH WIND       PRES   REMARKS
CHAMPAIGN      PTCLDY    66  64  93 SW6       29.84F
DANVILLE*      FOG       61  61 100 CALM      29.82S VSB 1/2
RANTOUL*       PTCLDY    67  66  94 SW5       29.83S
MATTOON        CLEAR     67  64  90 SW5       29.85R
PARIS*         CLEAR     67  65  94 SW6       29.86R
$$

ILZ079-100>102-300600-
SOUTHWEST ILLINOIS

CITY           SKY/WX    TMP DP  RH WIND       PRES   REMARKS
ALTON          PTCLDY    68  68 100 CALM      29.88S
BELLEVILLE     PTCLDY    72  66  83 W6        29.87S
CAHOKIA*       PTCLDY    70  67  90 SW5       29.87F
SPARTA*        PTCLDY    73  67  81 S3        29.89S
$$

ILZ064>066-069>071-074>076-080>082-084>086-088>090-092>094-300600-
SOUTH-CENTRAL ILLINOIS

CITY           SKY/WX    TMP DP  RH WIND       PRES   REMARKS
CARBONDALE     MOCLDY    72  68  87 CALM      29.87F
CAIRO*         PTCLDY    73  67  84 CALM      29.88S
EFFINGHAM*     CLEAR     67  63  89 CALM      29.88S
MARION         CLOUDY    72  68  88 S5        29.89S
MT. VERNON     MOCLDY    70  64  83 CALM      29.88S
CENTRALIA*     LGT RAIN  70  66  88 SW3       29.88R
SALEM*         PTCLDY    70  67  91 CALM      29.87S
METROPOLIS*    CLEAR     70  70 100 CALM      29.90S
$$

ILZ067-068-072-073-078-083-087-091-300600-
SOUTHEAST ILLINOIS

CITY           SKY/WX    TMP DP  RH WIND       PRES   REMARKS
LAWRENCEVILLE  CLEAR     68  65  90 SW6       29.86S
FLORA*         CLEAR     67  65  93 CALM      29.87S
FAIRFIELD*     PTCLDY    69  67  95 CALM      29.86S
HARRISBURG*    CLEAR     67  67 100 CALM      29.89S FOG
ROBINSON*      CLEAR     67  64  93 S3        29.86S
CARMI*         PTCLDY    67  62  83 S6        29.87S
$$

ABBREVIATIONS USED IN REMARKS
   TC - TEMPERATURE IN CELSIUS
  WCI - WIND CHILL INDEX
   HX - HEAT INDEX
  VSB - VISIBILITY
$$



USA.gov is the U.S. government's official web portal to all federal, state and local government web resources and services.